Regional Weather Roundup
Issued by NWS

Home | Current Version | Previous Version | Graphics & Text | Print | Product List | Glossary On
Versions: 1 2 3 4 5 6 7 8 9 10 11 12 13 14 15 16 17 18 19 20 21 22 23 24 25 26 27
000
ASUS45 KPSR 291010
RWRAZ

ARIZONA HOURLY REGIONAL WEATHER ROUNDUP
NATIONAL WEATHER SERVICE PHOENIX AZ
300 AM MST FRI JUL 29 2016

NOTE: FAIR INDICATES FEW OR NO CLOUDS BELOW 12,000 FEET WITH NO
SIGNIFICANT WEATHER AND/OR OBSTRUCTIONS TO VISIBILITY.

AZZ001>003-036-291100-
NORTHWEST ARIZONA

CITY           SKY/WX    TMP DP  RH WIND       PRES   REMARKS
BULLHEAD CITY  PTCLDY    99  50  19 S5        29.70S
KINGMAN        PTCLDY    78  46  32 S9        29.96F
$$

AZZ004>008-015-016-018-291100-
NORTH CENTRAL ARIZONA

CITY           SKY/WX    TMP DP  RH WIND       PRES   REMARKS
GRAND CANYON   MOCLDY    54  47  77 CALM      30.25S HAZE
WILLIAMS       CLOUDY    61  48  63 S8        30.32S
PRESCOTT       CLOUDY    78  47  33 VRB5      30.12R
FLAGSTAFF      MOCLDY    70  40  33 CALM      30.26S
PAYSON         MOCLDY    70  52  52 CALM      30.15R
PAGE           CLEAR     82  41  23 S5        30.00R
$$

AZZ009>014-017-291100-
NORTHEAST ARIZONA

CITY           SKY/WX    TMP DP  RH WIND       PRES   REMARKS
WINSLOW        PTCLDY    68  48  48 CALM      30.09S
WINDOW ROCK    PTCLDY    62  44  51 CALM      30.25R
SHOW LOW       PTCLDY    68  41  37 S7        30.23F
$$

AZZ023-291100-
GREATER PHOENIX AREA

CITY           SKY/WX    TMP DP  RH WIND       PRES   REMARKS
PHOENIX        MOCLDY    98  62  30 W6        29.74S
BUCKEYE        CLOUDY    90  64  43 SW5       29.77S
LUKE AFB       CLOUDY    95  63  34 SW15      29.73S
DEER VALLEY    CLOUDY    95  60  31 SW8       29.77S
SCOTTSDALE     CLOUDY    96  61  31 NW3       29.80R
MESA-GATEWAY   PTCLDY    90  55  31 SE6       29.78S
$$

AZZ027-028-291100-
SOUTHWEST MARICOPA COUNTY AND PINAL COUNTY

CITY           SKY/WX    TMP DP  RH WIND       PRES   REMARKS
CASA GRANDE    CLEAR     90  63  40 SW6       29.82R
GILA BEND      FAIR      94  61  33 SW9       29.75R
$$

AZZ503-504-507>509-291100-
SOUTHEAST ARIZONA

CITY           SKY/WX    TMP DP  RH WIND       PRES   REMARKS
TUCSON         PTCLDY    87  65  47 SE7       29.94S
DAVIS-MONTHAN  MOCLDY    85  66  53 S9        29.93R
NOGALES        PTCLDY    74  68  81 SW5       30.06S
SIERRA VISTA   MOCLDY    74  56  53 E2        30.10S
DOUGLAS        PTCLDY    70  65  84 SE8       30.05S
SAFFORD        PTCLDY    82  54  37 NW5       29.95S
$$

AZZ020-021-025-026-031-291100-
SOUTHWEST ARIZONA

CITY           SKY/WX    TMP DP  RH WIND       PRES   REMARKS
YUMA           CLEAR     88  73  61 SE23      29.72R
$$

CAZ031-033-041-043-047-048-061-291100-
SOUTHERN CALIFORNIA

CITY           SKY/WX    TMP DP  RH WIND       PRES   REMARKS
DOWNTOWN L.A.  CLEAR     70  61  73 CALM      29.82F
L.A. AIRPORT   PTCLDY    70  62  76 NW3       29.83S
SAN DIEGO      PTCLDY    70  66  87 N5        29.84F
BURBANK        CLEAR     73  60  63 CALM      29.84S
ONTARIO        CLEAR     75  55  49 CALM      29.84F
RIVERSIDE      CLEAR     76  53  44 CALM      29.84F
PALM SPRINGS   CLEAR     93  51  23 N5        29.76S
EL CENTRO NAS  CLEAR     86  71  60 E7        29.71R
IMPERIAL       CLEAR     89  74  60 E10       29.69R
NEEDLES        PTCLDY   100  53  20 SW10      29.72F
$$

NVZ020-UTZ003-291100-
SOUTHERN NEVADA-UTAH

CITY           SKY/WX    TMP DP  RH WIND       PRES   REMARKS
LAS VEGAS      MOCLDY    97  47  18 NW8       29.78S
SALT LAKE CITY CLEAR     76  44  32 SW5       30.02S
$$

NMZ009-TXZ055-291100-
NEW MEXICO-WEST TEXAS

CITY           SKY/WX    TMP DP  RH WIND       PRES   REMARKS
ALBUQUERQUE    CLEAR     76  48  37 N3        30.17R
EL PASO        CLEAR     79  55  43 SE6       30.06F
$$


........................KEY........................
SKY/WX - SKY CONDITION/WEATHER
TMP    - TEMPERATURE IN FAHRENHEIT
DP     - DEW POINT IN FAHRENHEIT
RH     - RELATIVE HUMIDITY IN PERCENT
WIND   - DIRECTION AND SPEED IN MILES PER HOUR (MPH)
VRB    - VARIABLE WIND DIRECTION
PRES   - MEAN SEA LEVEL PRESSURE IN INCHES OF MERCURY
         F - FALLING PRESSURE   R - RISING PRESSURE
         S - STEADY PRESSURE
VSB    - VISIBILITY IN MILES
HX     - HEAT INDEX IN FAHRENHEIT
WCI    - WIND CHILL INDEX IN FAHRENHEIT
TC     - TEMPERATURE IN CELSIUS WHICH IS ALSO KNOWN AS
         TEMPERATURE IN CENTIGRADE
AFB    - AIR FORCE BASE
         LUKE AFB IS LUKE AIR FORCE BASE
         DAVIS-MONTHAN IS DAVIS-MONTHAN AIR FORCE BASE
NAS    - NAVAL AIR STATION
         EL CENTRO NAS IS EL CENTRO NAVAL AIR STATION
N/A    - NOT AVAILABLE





USA.gov is the U.S. government's official web portal to all federal, state and local government web resources and services.